Location: Montamat
(43.4852°N, 0.8444°E)
Time: 13:17:32
(UTC+00:00)

ALOS 2 - Pass Details

Date: 14 May 2026
Orbit: 630 x 632 km, 97.9° (Epoch: 11 June)

Event Time Altitude Azimuth Distance (km) Brightness Sun altitude
Exits shadow 22:33:05 26° 66° (ENE) 1,257 4.1 -25.1°
Drops below altitude 10° 22:36:41 10° 11° (NNE) 2,023 5.9 -25.3°
Sets 22:39:10 0° 359° (N) 2,936 7.2 -25.4°
